Simultaneous Nadir Overpasses (SNOs) Predictions

Prediction of SNOs between AQUA and METOP-A Satellite Orbit:

Table of predicted SNOs for the next 14.0 days since TLE Epoch: 8/26/2017
Index Date (AQUA) Time (AQUA) Lat,Lon (AQUA) SZA (AQUA ) Date (METOP-A) Time (METOP-A) Lat,Lon (METOP-A) SZA (METOP-A ) Distance(km) Time Diff (sec)
1 08/26/2017 19:56:17 73.89,-125.03 63.78 08/26/2017 19:55:10 73.90,-125.10 63.81 2.51 67
2 08/26/2017 20:45:44 -73.96, 42.45 116.13 08/26/2017 20:45:51 -73.95, 42.35 116.14 3.11 7
3 08/26/2017 21:35:15 74.14,-150.33 64.08 08/26/2017 21:36:27 74.12,-149.89 64.04 13.32 72
4 08/29/2017 15:30:33 73.90, -58.61 64.78 08/29/2017 15:29:30 73.91, -58.67 64.80 2.04 63
5 08/29/2017 16:20:00 -73.97, 108.86 115.13 08/29/2017 16:20:11 -73.96, 108.79 115.14 2.40 11
6 08/29/2017 17:09:34 74.31, -84.27 65.24 08/29/2017 17:10:44 74.28, -83.09 65.17 35.78 70
7 09/01/2017 11:04:49 73.91, 7.79 65.80 09/01/2017 11:03:50 73.92, 7.76 65.82 0.96 59
8 09/01/2017 11:54:16 -73.99, 175.26 114.11 09/01/2017 11:54:31 -73.97, 175.22 114.12 2.12 15
9 09/01/2017 12:43:52 74.42, -18.12 66.38 09/01/2017 12:45:01 74.43, -16.28 66.32 54.82 69
10 09/04/2017 06:39:05 73.93, 74.18 66.85 09/04/2017 06:38:10 73.92, 74.18 66.85 1.20 55
11 09/04/2017 07:28:31 -74.01,-118.35 113.06 09/04/2017 07:28:50 -73.98,-118.36 113.09 3.21 19
12 09/04/2017 08:18:10 74.60, 47.89 67.59 09/04/2017 08:19:16 74.64, 50.65 67.54 81.58 66
13 09/07/2017 02:13:19 73.91, 140.67 67.86 09/07/2017 02:12:29 73.93, 140.60 67.89 3.07 50
14 09/07/2017 03:02:46 -73.98, -51.85 112.05 09/07/2017 03:03:10 -73.98, -51.94 112.05 2.61 24




NCC Satellite Simultaneous Nadir Overpasses (SNOs) Prediction Service
